Location: Chippewa Lake
(41.0698°N, 81.9010°W)
Time: 20:27:18
(UTC+00:00)

ARIANE 5 R/B - Pass Details

Date: 09 May 2021
Orbit: 620 x 656 km, 98.1° (Epoch: 13 June)

Event Time Altitude Azimuth Distance (km) Brightness Sun altitude
Exits shadow 02:13:18 28° 103° (ESE) 1,181 3.5 -16.7°
Maximum altitude 02:14:33 33° 70° (ENE) 1,046 3.5 -16.9°
Drops below altitude 10° 02:18:26 10° 6° (N) 1,996 5.7 -17.4°
Sets 02:20:47 0° 357° (N) 2,906 6.7 -17.8°
